When you browse on this site, cookies collect data to enhance your experience and personalize the content and advertising you see.
Visit our Privacy Policy to learn more. By continuing to use the site, you agree to this use of cookies and data.
  • In Schweiz
  • Länderverzeichnis
  • Für 7 Tage
  • Wassertemperatur
  • Satellitenkarten
  • Wetterkarte
  • Widgets
  • user-avatar
    Anmelden

    Stündliche Wetter Giumri

    Heute, 23 April, Dienstag

    Zeit Temperatur Niederschläge Wind Luftdruck Luftfeuchtigkeit
    00:00 -2°C° 0.1 mm 3 m/S 632 mmHg 79%
    01:00 -2°C° 0.1 mm 2 m/S 632 mmHg 80%
    02:00 -2°C° 0.1 mm 2 m/S 632 mmHg 80%
    03:00 -2°C° 0.1 mm 2 m/S 633 mmHg 81%
    04:00 -2°C° 0 mm 2 m/S 633 mmHg 80%
    05:00 -2°C° 0 mm 2 m/S 633 mmHg 78%
    06:00 -2°C° 0 mm 2 m/S 634 mmHg 77%
    07:00 +1°C° 0 mm 2 m/S 634 mmHg 71%
    08:00 +3°C° 0 mm 2 m/S 635 mmHg 65%
    09:00 +4°C° 0 mm 2 m/S 635 mmHg 59%
    10:00 +5°C° 0 mm 2 m/S 636 mmHg 57%
    11:00 +6°C° 0 mm 2 m/S 636 mmHg 55%
    12:00 +7°C° 0 mm 2 m/S 636 mmHg 53%
    13:00 +7°C° 0.1 mm 2 m/S 636 mmHg 54%
    14:00 +7°C° 0.1 mm 2 m/S 636 mmHg 54%
    15:00 +8°C° 0.1 mm 2 m/S 636 mmHg 55%
    16:00 +7°C° 0.1 mm 2 m/S 636 mmHg 59%
    17:00 +6°C° 0.1 mm 2 m/S 636 mmHg 62%
    18:00 +6°C° 0.1 mm 2 m/S 636 mmHg 66%
    19:00 +4°C° 0 mm 2 m/S 637 mmHg 70%
    20:00 +3°C° 0 mm 2 m/S 637 mmHg 75%
    21:00 +2°C° 0 mm 2 m/S 637 mmHg 80%
    22:00 +1°C° 0 mm 2 m/S 637 mmHg 81%
    23:00 +1°C° 0 mm 2 m/S 638 mmHg 82%

    Morgen, 24 April, Mittwoch

    Zeit Temperatur Niederschläge Wind Luftdruck Luftfeuchtigkeit
    00:00 -1°C° 0 mm 2 m/S 638 mmHg 83%
    01:00 -1°C° 0 mm 2 m/S 638 mmHg 83%
    02:00 +1°C° 0 mm 1 m/S 638 mmHg 83%
    03:00 +1°C° 0 mm 1 m/S 638 mmHg 82%
    04:00 +1°C° 0 mm 1 m/S 638 mmHg 81%
    05:00 +1°C° 0 mm 1 m/S 638 mmHg 79%
    06:00 +1°C° 0 mm 1 m/S 638 mmHg 77%
    07:00 +3°C° 0 mm 1 m/S 639 mmHg 69%
    08:00 +5°C° 0 mm 1 m/S 639 mmHg 62%
    09:00 +6°C° 0 mm 1 m/S 639 mmHg 55%
    10:00 +7°C° 0 mm 1 m/S 639 mmHg 52%
    11:00 +8°C° 0 mm 1 m/S 639 mmHg 49%
    12:00 +8°C° 0 mm 2 m/S 639 mmHg 46%
    13:00 +9°C° 0 mm 2 m/S 639 mmHg 46%
    14:00 +9°C° 0 mm 2 m/S 638 mmHg 45%
    15:00 +9°C° 0 mm 2 m/S 638 mmHg 45%
    16:00 +9°C° 0 mm 2 m/S 638 mmHg 48%
    17:00 +8°C° 0 mm 2 m/S 638 mmHg 52%
    18:00 +8°C° 0 mm 2 m/S 638 mmHg 55%
    19:00 +6°C° 0 mm 2 m/S 638 mmHg 61%
    20:00 +5°C° 0 mm 2 m/S 637 mmHg 67%
    21:00 +3°C° 0 mm 2 m/S 637 mmHg 74%
    22:00 +3°C° 0 mm 2 m/S 637 mmHg 76%
    23:00 +3°C° 0 mm 2 m/S 638 mmHg 79%

    übermorgen, 25 April, Donnerstag

    Zeit Temperatur Niederschläge Wind Luftdruck Luftfeuchtigkeit
    00:00 +3°C° 0 mm 1 m/S 638 mmHg 82%
    01:00 +2°C° 0 mm 2 m/S 638 mmHg 83%
    02:00 +2°C° 0 mm 2 m/S 637 mmHg 85%
    03:00 +1°C° 0 mm 2 m/S 637 mmHg 86%
    04:00 +1°C° 0 mm 2 m/S 638 mmHg 85%
    05:00 +2°C° 0 mm 2 m/S 638 mmHg 84%
    06:00 +2°C° 0 mm 2 m/S 638 mmHg 82%
    07:00 +4°C° 0 mm 1 m/S 638 mmHg 74%
    08:00 +6°C° 0 mm 1 m/S 638 mmHg 65%
    09:00 +8°C° 0 mm 1 m/S 639 mmHg 56%
    10:00 +9°C° 0 mm 1 m/S 639 mmHg 53%
    11:00 +10°C° 0 mm 1 m/S 639 mmHg 51%
    12:00 +11°C° 0 mm 1 m/S 639 mmHg 49%
    13:00 +11°C° 0 mm 1 m/S 638 mmHg 48%
    14:00 +10°C° 0 mm 2 m/S 638 mmHg 48%
    15:00 +10°C° 0 mm 2 m/S 638 mmHg 48%
    16:00 +10°C° 0 mm 2 m/S 638 mmHg 51%
    17:00 +9°C° 0 mm 2 m/S 637 mmHg 54%
    18:00 +8°C° 0 mm 2 m/S 637 mmHg 57%
    19:00 +7°C° 0 mm 2 m/S 637 mmHg 63%
    20:00 +6°C° 0 mm 2 m/S 637 mmHg 69%
    21:00 +4°C° 0 mm 2 m/S 637 mmHg 75%
    22:00 +4°C° 0 mm 2 m/S 637 mmHg 77%
    23:00 +3°C° 0 mm 2 m/S 637 mmHg 79%

    26 April, Freitag

    Zeit Temperatur Niederschläge Wind Luftdruck Luftfeuchtigkeit
    00:00 +4°C° 0 mm 1 m/S 637 mmHg 81%
    01:00 +3°C° 0 mm 1 m/S 637 mmHg 81%
    02:00 +3°C° 0 mm 1 m/S 637 mmHg 82%
    03:00 +3°C° 0 mm 1 m/S 637 mmHg 82%
    04:00 +3°C° 0 mm 1 m/S 637 mmHg 81%
    05:00 +3°C° 0 mm 1 m/S 637 mmHg 80%
    06:00 +3°C° 0 mm 1 m/S 637 mmHg 79%
    07:00 +5°C° 0 mm 1 m/S 637 mmHg 71%
    08:00 +6°C° 0 mm 2 m/S 637 mmHg 64%
    09:00 +8°C° 0 mm 2 m/S 637 mmHg 56%
    10:00 +9°C° 0 mm 2 m/S 637 mmHg 54%
    11:00 +10°C° 0 mm 2 m/S 637 mmHg 51%
    12:00 +12°C° 0 mm 2 m/S 637 mmHg 49%
    13:00 +11°C° 0.1 mm 3 m/S 637 mmHg 50%
    14:00 +11°C° 0.1 mm 3 m/S 637 mmHg 50%
    15:00 +11°C° 0.1 mm 3 m/S 636 mmHg 51%
    16:00 +10°C° 0.1 mm 3 m/S 636 mmHg 55%
    17:00 +10°C° 0.1 mm 2 m/S 636 mmHg 58%
    18:00 +9°C° 0.1 mm 2 m/S 636 mmHg 61%
    19:00 +7°C° 0 mm 2 m/S 636 mmHg 68%
    20:00 +6°C° 0 mm 2 m/S 636 mmHg 74%
    21:00 +5°C° 0 mm 2 m/S 636 mmHg 80%
    22:00 +4°C° 0 mm 2 m/S 636 mmHg 82%
    23:00 +4°C° 0 mm 2 m/S 636 mmHg 84%

    27 April, Samstag

    Zeit Temperatur Niederschläge Wind Luftdruck Luftfeuchtigkeit
    00:00 +3°C° 0 mm 2 m/S 636 mmHg 86%
    01:00 +3°C° 0 mm 2 m/S 636 mmHg 87%
    02:00 +3°C° 0 mm 2 m/S 636 mmHg 88%
    03:00 +3°C° 0 mm 2 m/S 636 mmHg 89%
    04:00 +4°C° 0 mm 1 m/S 636 mmHg 88%
    05:00 +4°C° 0 mm 1 m/S 636 mmHg 87%
    06:00 +4°C° 0 mm 1 m/S 636 mmHg 87%
    07:00 +6°C° 0 mm 1 m/S 636 mmHg 78%
    08:00 +8°C° 0 mm 1 m/S 637 mmHg 69%
    09:00 +9°C° 0 mm 1 m/S 637 mmHg 60%
    10:00 +9°C° 0 mm 2 m/S 637 mmHg 56%
    11:00 +12°C° 0 mm 2 m/S 637 mmHg 52%
    12:00 +13°C° 0 mm 2 m/S 637 mmHg 47%
    13:00 +13°C° 0.1 mm 2 m/S 637 mmHg 47%
    14:00 +12°C° 0.1 mm 3 m/S 636 mmHg 46%
    15:00 +13°C° 0.1 mm 3 m/S 636 mmHg 45%
    16:00 +13°C° 0.1 mm 2 m/S 636 mmHg 49%
    17:00 +12°C° 0.1 mm 2 m/S 636 mmHg 52%
    18:00 +10°C° 0.1 mm 2 m/S 635 mmHg 55%
    19:00 +9°C° 0 mm 2 m/S 635 mmHg 63%
    20:00 +7°C° 0 mm 2 m/S 635 mmHg 70%
    21:00 +6°C° 0 mm 2 m/S 635 mmHg 77%
    22:00 +5°C° 0 mm 2 m/S 635 mmHg 80%
    23:00 +5°C° 0 mm 2 m/S 635 mmHg 83%

    28 April, Sonntag

    Zeit Temperatur Niederschläge Wind Luftdruck Luftfeuchtigkeit
    00:00 +4°C° 0 mm 2 m/S 635 mmHg 86%
    01:00 +5°C° 0 mm 1 m/S 635 mmHg 87%
    02:00 +5°C° 0 mm 1 m/S 635 mmHg 88%
    03:00 +4°C° 0 mm 1 m/S 635 mmHg 89%
    04:00 +5°C° 0 mm 1 m/S 635 mmHg 86%
    05:00 +5°C° 0 mm 1 m/S 634 mmHg 84%
    06:00 +5°C° 0 mm 1 m/S 634 mmHg 81%
    07:00 +7°C° 0 mm 1 m/S 635 mmHg 72%
    08:00 +8°C° 0 mm 2 m/S 635 mmHg 62%
    09:00 +10°C° 0 mm 3 m/S 635 mmHg 53%
    10:00 +11°C° 0 mm 3 m/S 635 mmHg 51%
    11:00 +12°C° 0 mm 3 m/S 635 mmHg 50%
    12:00 +12°C° 0 mm 3 m/S 635 mmHg 48%
    13:00 +13°C° 0.1 mm 3 m/S 635 mmHg 47%
    14:00 +14°C° 0.1 mm 3 m/S 635 mmHg 46%
    15:00 +14°C° 0.1 mm 3 m/S 635 mmHg 44%
    16:00 +14°C° 0.1 mm 3 m/S 634 mmHg 47%
    17:00 +14°C° 0.1 mm 2 m/S 634 mmHg 49%
    18:00 +14°C° 0.1 mm 2 m/S 634 mmHg 51%
    19:00 +12°C° 0 mm 2 m/S 634 mmHg 54%
    20:00 +9°C° 0 mm 2 m/S 634 mmHg 58%
    21:00 +9°C° 0 mm 1 m/S 634 mmHg 62%
    22:00 +8°C° 0 mm 1 m/S 634 mmHg 63%
    23:00 +8°C° 0 mm 1 m/S 634 mmHg 64%
    Mehr zeigen